This demonstration page uses our WeatherBlox Daily Observations layout. Learn more.

Left ArrowRight Arrow

40.92945, -100.16068

Hourly Observations for June 2, 2020

Temp ( °F °C ) Dew Point ( °F °C ) Humidity (%) Winds ( mph kmh ) Pressure ( in mb ) Visibility ( mi km ) Precip ( " mm )
12:15 am 00:15 Clear 74 23.6 58 14.7 58 58 S 15 24 29.81 1010 10 16.0934 0 0
12:35 am 00:35 Clear 74 23.5 58 14.5 57 57 S 15 24 29.81 1010 10 16.0934 0 0
12:55 am 00:55 Clear 74 23.1 57 14.1 57 57 S 12 19 29.82 1010 10 16.0934 0 0
1:15 am 01:15 Clear 73 23 57 13.8 56 56 S 15 24 29.81 1009 10 16.0934 0 0
1:35 am 01:35 Clear 73 22.7 56 13.6 57 57 S 13 20 29.81 1009 10 16.0934 0 0
1:55 am 01:55 Clear 73 22.5 56 13.6 57 57 S 10 17 29.81 1010 10 16.0934 0 0
2:15 am 02:15 Clear 72 22 56 13.6 59 59 S 13 20 29.81 1009 10 16.0934 0 0
2:35 am 02:35 Clear 71 21.9 57 13.7 60 60 S 15 24 29.8 1009 10 16.0934 0 0
2:55 am 02:55 Clear 71 21.6 57 13.8 61 61 S 12 19 29.8 1009 10 16.0934 0 0
3:15 am 03:15 Clear 70 21.1 57 13.8 63 63 S 5 7 29.8 1009 10 16.0934 0 0
3:35 am 03:35 Clear 68 20.1 57 13.8 67 67 ESE 3 6 29.82 1010 10 16.0934 0 0
3:55 am 03:55 Clear 69 20.7 57 13.7 64 64 S 7 11 29.81 1009 10 16.0934 0 0
4:15 am 04:15 Clear 67 19.6 57 13.9 70 70 SSE 3 6 29.82 1010 10 16.0934 0 0
4:35 am 04:35 Clear 68 20 57 13.8 68 68 SSE 3 6 29.81 1010 10 16.0934 0 0
4:55 am 04:55 Clear 68 20.1 57 14 68 68 S 13 20 29.8 1009 10 16.0934 0 0
5:15 am 05:15 Clear 68 19.8 57 14.1 70 70 SSE 5 7 29.81 1010 10 16.0934 0 0
5:35 am 05:35 Clear 66 18.7 57 14.1 75 75 S 10 17 29.82 1010 10 16.0934 0 0
5:55 am 05:55 Clear 64 17.9 58 14.2 79 79 SSE 3 6 29.83 1010 10 16.0934 0 0
6:15 am 06:15 Sunny 64 17.8 58 14.4 81 81 E 5 7 29.83 1010 10 16.0934 0 0
6:35 am 06:35 Sunny 64 17.8 58 14.5 81 81 ESE 5 7 29.83 1010 10 16.0934 0 0
6:55 am 06:55 Sunny 64 17.5 58 14.7 84 84 S 6 9 29.84 1011 10 16.0934 0 0
7:15 am 07:15 Sunny 65 18.4 59 15 81 81 S 5 7 29.85 1011 10 16.0934 0 0
7:35 am 07:35 Sunny 67 19.5 60 15.3 77 77 S 5 7 29.84 1010 10 16.0934 0 0
7:55 am 07:55 Sunny 69 20.3 60 15.5 74 74 S 8 13 29.83 1010 10 16.0934 0 0
8:15 am 08:15 Sunny 70 21.1 60 15.6 71 71 SSW 9 15 29.82 1010 10 16.0934 0 0
8:35 am 08:35 Sunny 71 21.6 61 16 71 71 S 8 13 29.82 1010 10 16.0934 0 0
8:55 am 08:55 Sunny 72 22 61 16.1 69 69 SSW 9 15 29.82 1010 10 16.0934 0 0
9:15 am 09:15 Sunny 73 22.7 61 16.3 67 67 SSW 9 15 29.81 1009 10 16.0934 0 0
9:35 am 09:35 Sunny 74 23.6 62 16.6 65 65 SSW 7 11 29.8 1009 10 16.0934 0 0
9:55 am 09:55 Sunny 76 24.6 63 17.2 64 64 SSW 6 9 29.79 1009 10 16.0934 0 0
10:15 am 10:15 Sunny 77 25.2 62 16.8 60 60 SW 6 9 29.79 1009 10 16.0934 0 0
10:35 am 10:35 Sunny 79 26.3 63 17.1 57 57 SSW 3 6 29.78 1008 10 16.0934 0 0
10:55 am 10:55 Sunny 81 27.2 63 17.2 54 54 SSW 3 6 29.77 1008 10 16.0934 0 0
11:15 am 11:15 Sunny 83 28.3 65 18.4 55 55 SSW 7 11 29.76 1008 10 16.0934 0 0
11:35 am 11:35 Sunny 84 29.1 65 18.1 52 52 W 6 9 29.76 1008 10 16.0934 0 0
11:55 am 11:55 Sunny 87 30.4 65 18.4 49 49 W 6 9 29.74 1007 10 16.0934 0 0
12:15 pm 12:15 Sunny 88 31 62 16.9 43 43 SW 6 9 29.73 1007 10 16.0934 0 0
12:35 pm 12:35 Sunny 89 31.6 66 18.8 47 47 SSE 5 7 29.73 1007 10 16.0934 0 0
12:55 pm 12:55 Sunny 89 31.8 66 18.9 46 46 SSE 8 13 29.73 1007 10 16.0934 0 0
1:15 pm 13:15 Sunny 88 31.3 66 18.7 47 47 SSW 8 13 29.73 1007 10 16.0934 0 0
1:35 pm 13:35 Sunny 90 32 63 17.4 42 42 SSW 9 15 29.72 1007 10 16.0934 0 0
1:55 pm 13:55 Sunny 90 32.4 64 17.5 41 41 S 9 15 29.72 1006 10 16.0934 0 0
2:15 pm 14:15 Sunny 90 32.4 61 16 37 37 S 12 19 29.72 1006 10 16.0934 0 0
2:35 pm 14:35 Sunny 91 32.8 61 16.3 37 37 SW 12 19 29.71 1006 10 16.0934 0 0
2:55 pm 14:55 Sunny 90 32.2 58 14.6 34 34 SW 13 20 29.71 1006 10 16.0934 0 0
3:15 pm 15:15 Sunny 90 32.1 60 15.6 37 37 SSW 12 19 29.71 1006 10 16.0934 0 0
3:35 pm 15:35 Sunny 91 33 60 15.5 35 35 SW 10 17 29.71 1006 10 16.0934 0 0
3:55 pm 15:55 Sunny 91 32.7 60 15.3 35 35 SSW 8 13 29.71 1006 10 16.0934 0 0
4:15 pm 16:15 Sunny 94 34.3 61 16.2 34 34 WSW 7 11 29.69 1005 10 16.0934 0 0
4:35 pm 16:35 Sunny 93 33.9 61 16.2 35 35 S 5 7 29.69 1005 10 16.0934 0 0
4:55 pm 16:55 Sunny 91 33 61 16.2 36 36 SSW 5 7 29.69 1005 10 16.0934 0 0
5:15 pm 17:15 Sunny 90 32.3 61 16.1 38 38 W 7 11 29.7 1006 10 16.0934 0 0
5:35 pm 17:35 Sunny 89 31.8 62 16.7 40 40 W 6 9 29.7 1006 10 16.0934 0 0
5:55 pm 17:55 Sunny 88 31.1 64 17.9 45 45 W 3 6 29.71 1006 10 16.0934 0 0
6:15 pm 18:15 Sunny 85 29.2 64 18 51 51 N 5 7 29.73 1007 10 16.0934 0 0
6:35 pm 18:35 Sunny 85 29.2 67 19.3 55 55 N 15 24 29.74 1007 10 16.0934 0 0
6:55 pm 18:55 Sunny 84 28.7 68 19.8 59 59 N 18 30 29.75 1007 10 16.0934 0 0
7:15 pm 19:15 Sunny 83 28.1 68 19.8 61 61 N 15 24 29.76 1008 10 16.0934 0 0
7:35 pm 19:35 Sunny 82 27.7 67 19.6 61 61 N 16 26 29.78 1008 10 16.0934 0 0
7:55 pm 19:55 Sunny with Thunderstorms 82 27.5 67 19.2 61 61 N 14 22 29.79 1009 10 16.0934 0 0
8:15 pm 20:15 Partly Cloudy 80 26.6 67 19.5 65 65 N 16 26 29.8 1009 10 16.0934 0 0
8:35 pm 20:35 Partly Cloudy 79 26.2 67 19.2 65 65 NNE 18 30 29.8 1009 10 16.0934 0 0
8:55 pm 20:55 Partly Cloudy with Light Rain 77 25.1 67 19.4 71 71 NNE 10 17 29.83 1010 10 16.0934 0 0
9:15 pm 21:15 Mostly Cloudy with Light Rain 76 24.2 67 19.6 76 76 NNE 6 9 29.85 1011 10 16.0934 0 0
9:35 pm 21:35 Partly Cloudy with Nearby Thunderstorms 74 23.5 67 19.6 79 79 NW 10 17 29.86 1011 10 16.0934 0 0
9:55 pm 21:55 Clear 75 23.7 66 18.8 74 74 NW 10 17 29.87 1012 10 16.0934 0 0
10:15 pm 22:15 Clear with Thunderstorms 74 23.2 66 19 77 77 SSW 9 15 29.92 1013 10 16.0934 0 0
10:35 pm 22:35 Clear with Nearby Thunderstorms 73 22.7 67 19.5 82 82 SW 3 6 29.91 1013 10 16.0934 0 0
10:55 pm 22:55 Clear with Nearby Thunderstorms 72 22 67 19.3 85 85 Calm 29.93 1014 10 16.0934 0 0
11:15 pm 23:15 Clear 71 21.5 67 19.3 87 87 WNW 7 11 29.95 1014 10 16.0934 0 0
11:35 pm 23:35 Clear 72 22.1 67 19.4 85 85 WSW 5 7 29.95 1014 10 16.0934 0 0
11:55 pm 23:55 Clear 71 21.7 67 19.2 86 86 SW 7 11 29.96 1014 10 16.0934 0 0

Powered by AerisWeather